Location: Unspecified
(0.0000°N, 0.0000°E)
Time: 17:53:05
(UTC+00:00)

STARLINK 1016 - Pass Details

Date: 17 January 2020
Orbit: 347 x 352 km, 53.0° (Epoch: 18 January)

Event Time Altitude Azimuth Distance (km) Brightness Sun altitude
Rises 05:23:26 0° 212° (SSW) 2,148 6.5 -10.8°
Reaches altitude 10° 05:25:27 10° 210° (SSW) 1,303 5.5 -10.4°
Maximum altitude 05:28:21 74° 124° (SE) 363 2.9 -9.7°
Drops below altitude 10° 05:31:13 10° 38° (NE) 1,294 5.8 -9.0°
Sets 05:33:13 0° 37° (NE) 2,131 6.8 -8.6°
